Showing default

INTELSAT 515, 19772

Orbit data source: Space-Track

INTELSAT 515, 19772 is a payload satellite owned by INTELSAT (US) in GEO that was launched on Fri, 27 Jan 1989 UTC via an ARIANE 2 launch vehicle from the French Guiana (FRGUI). Payloads include a variety of satellites, spacecraft, and rockets equipped with specific instruments for various scientific and technological missions. These include communications satellites like Starlink; space stations such as the ISS; scientific satellites like the Hubble; Earth observation satellites from companies like Planet Labs, Umbra, and HawkEye 360; GPS; miniature CubeSats for education and research; and military/defense satellites.

Loading next visibility...
INTELSAT 515 details
Identifier
19772, 1989-006A
Orbit
GEO
Last TLE update11 hours ago
Origin
Flag of USINTELSAT (US / ITSO)
ManufacturerFord Ae
MissionNon-operational Civil Communications
Bus & MotorFS INTELSAT 5, STAR 37XF
Mass1,981 kg wet, 884 kg dry
Launch date (UTC)
1989-01-27 (36 years ago)
Launch vehicle
ARIANE 2
Launch site
French Guiana (FRGUI)
Object type
Payload
Rocket body
Debris
Shape & HBRHex Poly + 2 Pan, 15.9 m
Radar Cross Section18.961 m², Large (>1 m²)

Expand to show TLE details & history

TLE from 11 hours ago
0 INTELSAT 515
1 19772U 89006A   24361.35819081 -.00000135  00000-0  00000-0 0  9990
2 19772  14.9589 358.2110 0018845 115.6422 294.2098  0.99105442119291
Epoch: 2024-12-26T08:35Z
Definitive object data (Epoch: 2024-12-26T08:35:47.685Z)
Latitude11.36248°
Longitude-177.41016°
Altitude36,082.578 km
Speed3.065 km/s
True Right ascension03h 07m 30s
True Declination11° 21' 05"
Sunlit
Object was in daylight at TLE epoch
Visualization TLE readout
Latitude-7.4074°
Longitude-17.01921°
Altitude36,123.713 km
Speed3.062 km/s
Apparent Right ascension13h 22m 45s
Apparent Declination-13° 05' 38"
Sunlit
Object is in daylight
Visualization observer readout
Local Sidereal Time18:43:33
Azimuth253.728° W
Elevation-1.043°
Doppler factor1
Orbital elements
Apogee altitude36,197.808 km
Perigee altitude36,037.641 km
Semi-major axis42,495.862 km
Eccentricity0.0018845
Inclination14.9589°
RAAN358.211°
Arg. of periapsis115.6422°
True anomaly294.01265°
Mean anomaly294.2098°
Eccentric anomaly294.11125°
Mean motion0.24776 °/min
BSTARUnknown
Orbital period1453.05 mins
Loading historical data...
19772 neighbors
Authenticating...
Loading maneuver chart data...
Loading historical data...
Loading historical data...
Loading historical data...
Loading historical data...
Loading historical data...
Loading historical data...
Loading historical data...

INTELSAT 515 Visibility forecast

Observer location: undefined°, undefined

Span
Click to sort rows by Start time (UTC) header in descending order
Start Az.
Max El. time (UTC)
Max El. Az.
Max El.
End time (UTC)
End Az.
271 mins2024-12-27 09:36:54.939Z271.736° WNW2024-12-27 12:00:54.939Z272.674° WNW11.612°2024-12-27 14:07:54.939Z269.656° W
|